Regional Weather Roundup
Issued by NWS State College, PA

Home | Current Version | Previous Version | Text Only | Print | Product List | Glossary Off
Versions: 1 2 3 4 5 6 7 8 9 10 11 12 13 14 15 16 17 18 19 20 21 22 23 24 25 26 27 28 29 30 31 32 33 34 35 36 37 38 39 40 41 42 43 44 45 46 47 48 49 50

000
ASUS41 KCTP 222010
RWRCTP

REGIONAL WEATHER ROUNDUP
NATIONAL WEATHER SERVICE STATE COLLEGE PA
300 PM EST SUN JAN 22 2017

Note: "fair" indicates few or no clouds below 12,000 feet with no
significant weather and/or obstructions to visibility.

* = STATION THAT DOES NOT REPORT PRECIPITATION /E.G. RAIN...SNOW...ETC/
    THUNDER OR FOG.

PAZ002>004-007>009-013>016-020>023-029>032-222100-
WESTERN PENNSYLVANIA

CITY           SKY/WX    TMP DP  RH WIND       PRES   REMARKS
ERIE           CLOUDY    43  39  86 NE12      29.62R
MEADVILLE      CLOUDY    59  46  62 E6        29.58F
FRANKLIN*        N/A     57  48  72 NE5       29.60S
NEW CASTLE     MOCLDY    59  51  75 N7        29.57F
BEAVER COUNTY  NOT AVBL
BUTLER*        CLOUDY    57  48  72 NE6       29.59F
PITTSBURGH INT CLOUDY    60  48  64 NE8       29.54F
PITTSBURGH     CLOUDY    61  44  53 E7        29.54F
INDIANA*       MOSUNNY   59  50  72 E8        29.60F
LATROBE        CLOUDY    61  48  63 E9        29.57S
WASHINGTON CO* CLOUDY    61  46  59 NE8       29.53F
$$

PAZ004>006-010>012-017>019-024>028-033>037-041-042-045-046-049>053-222100-
CENTRAL PENNSYLVANIA

CITY           SKY/WX    TMP DP  RH WIND       PRES   REMARKS
BRADFORD       CLOUDY    57  47  69 E5        29.61F
DUBOIS         CLOUDY    59  46  62 SE6       29.59R
CLEARFIELD     CLOUDY    56  48  74 E5        29.61S
JOHNSTOWN      CLOUDY    56  47  71 E6        29.58S
ALTOONA        FOG       45  44  97 CALM      29.64R VSB 1/2
STATE COLLEGE  FOG       43  43 100 CALM      29.64R VSB 1/8
WILLIAMSPORT   CLOUDY    45  42  89 CALM      29.65S
SELINSGROVE    CLOUDY    44  44 100 CALM      29.66F FOG
FT INDIANTOWN  CLOUDY    46  46 100 NE5       29.65R
CAPITAL CITY   CLOUDY    47  43  86 E5        29.66S FOG
HARRISBURG     CLOUDY    46  45  96 NE3       29.65F
YORK           CLOUDY    45  45 100 N5        29.64R FOG
$$

PAZ038>040-043-044-047-048-054-055-060>062-067>071-222100-
EASTERN PENNSYLVANIA

CITY           SKY/WX    TMP DP  RH WIND       PRES   REMARKS
SCRANTON       PTSUNNY   56  49  77 NE6       29.65R
MOUNT POCONO   FOG       46  45  96 E6        29.66R VSB 1/4
ALLENTOWN      CLOUDY    50  46  86 NE6       29.67R FOG
QUAKERTOWN*    CLOUDY    46  46 100 NE3       29.67F
READING        CLOUDY    47  47 100 CALM      29.66S
LANCASTER      CLOUDY    47  46  97 NE8       29.64F FOG
COATESVILLE    CLOUDY    48  48 100 N7        29.64F FOG
POTTSTOWN      CLOUDY    47  46  97 N5        29.68R FOG
BLUE BELL      CLOUDY    46  46 100 NE3       29.67R
DOYLESTOWN     CLOUDY    49  48  97 NE5       29.66S FOG
WILLOW GROVE   NOT AVBL
NORTH PHILA    CLOUDY    50  48  93 NE9       29.68S FOG
PHILADELPHIA   LGT RAIN  49  48  97 NE7       29.66R FOG
$$




USA.gov is the U.S. government's official web portal to all federal, state and local government web resources and services.